�N����,����,�~����,�C��,���x,�C��,����,���ϕ���,�ő�u�ԕ���,�ő厞����,���˗�,�I�_���x,�n�����x,�ő啗���N��,DTYPE
"22/08/10","00:10",0.0,28.1,79.9,1005.0,321.8,1.2,3.2,350.3,0.00,24.3,26.8,"00:05:28",1
"22/08/10","00:20",0.0,28.1,79.9,1004.8,308.2,1.0,2.6,235.0,0.00,24.3,26.7,"00:15:12",1
"22/08/10","00:30",0.0,28.3,79.5,1004.8,308.2,1.3,5.4,5.4,0.00,24.5,26.8,"00:22:40",1
"22/08/10","00:40",0.0,28.5,79.1,1004.5,310.9,1.7,3.5,316.9,0.00,24.6,26.7,"00:39:04",1
"22/08/10","00:50",0.0,28.5,78.8,1004.5,300.7,1.3,2.6,314.6,0.00,24.5,26.6,"00:45:12",1
"22/08/10","01:00",0.0,28.4,78.8,1004.8,304.0,1.3,3.2,314.4,0.00,24.4,26.7,"00:57:36",1
"22/08/10","01:10",0.0,28.5,78.7,1004.8,313.4,1.2,2.8,340.9,0.00,24.5,26.7,"01:01:20",1
"22/08/10","01:20",0.0,28.4,79.1,1004.5,320.0,1.5,2.9,297.5,0.00,24.5,26.6,"01:17:44",1
"22/08/10","01:30",0.0,28.3,79.5,1004.5,306.8,1.2,2.4,319.8,0.00,24.5,26.5,"01:22:00",1
"22/08/10","01:40",0.0,28.2,79.8,1004.3,323.6,1.6,2.7,352.6,0.00,24.4,26.4,"01:31:28",1
"22/08/10","01:50",0.0,28.2,79.8,1004.3,322.9,1.6,2.6,325.2,0.00,24.4,26.7,"01:42:48",1
"22/08/10","02:00",0.0,28.0,80.1,1004.5,322.5,1.2,2.4,331.8,0.00,24.3,26.6,"01:51:36",1
"22/08/10","02:10",0.0,27.8,80.6,1004.3,282.8,1.0,1.8,253.1,0.00,24.2,26.6,"02:09:12",1
"22/08/10","02:20",0.0,27.5,81.1,1004.1,302.6,0.8,1.7,325.8,0.00,24.0,26.6,"02:14:56",1
"22/08/10","02:30",0.0,27.2,81.7,1004.1,340.2,0.5,1.3,335.3,0.00,23.8,26.4,"02:21:52",1
"22/08/10","02:40",0.0,26.8,82.1,1004.3,314.1,0.2,0.6,358.1,0.00,23.5,26.5,"02:30:16",1
"22/08/10","02:50",0.0,26.8,82.9,1004.1,330.8,0.7,1.4,347.5,0.00,23.7,26.4,"02:48:00",1
"22/08/10","03:00",0.0,26.5,83.8,1004.1,311.7,0.8,1.3,342.1,0.00,23.6,26.5,"02:51:04",1
"22/08/10","03:10",0.0,26.4,84.8,1004.3,339.4,1.1,1.4,358.6,0.00,23.7,26.3,"03:02:40",1
"22/08/10","03:20",0.0,26.3,85.5,1004.5,338.0,1.0,1.3,337.4,0.00,23.7,26.6,"03:14:00",1
"22/08/10","03:30",0.0,26.2,86.1,1004.3,327.6,1.1,1.8,342.3,0.00,23.7,26.3,"03:26:48",1
"22/08/10","03:40",0.0,26.2,86.3,1004.3,290.2,0.6,1.0,324.3,0.00,23.8,26.2,"03:35:44",1
"22/08/10","03:50",0.0,26.2,86.4,1004.3,308.8,0.7,1.1,253.8,0.00,23.8,26.3,"03:40:24",1
"22/08/10","04:00",0.0,26.0,86.5,1004.3,320.3,0.7,1.4,331.7,0.00,23.6,26.4,"03:51:52",1
"22/08/10","04:10",0.0,25.8,86.8,1004.1,257.2,0.5,1.2,237.7,0.00,23.5,26.3,"04:05:12",1
"22/08/10","04:20",0.0,26.0,87.1,1004.5,324.5,1.0,1.9,311.0,0.00,23.7,26.5,"04:12:40",1
"22/08/10","04:30",0.0,25.9,87.6,1004.3,345.7,1.0,1.8,352.7,0.00,23.7,26.3,"04:26:32",1
"22/08/10","04:40",0.0,25.8,88.0,1004.3,351.7,1.1,1.9,0.7,0.00,23.7,26.3,"04:37:36",1
"22/08/10","04:50",0.0,25.7,88.3,1004.1,333.6,1.1,1.6,311.5,0.00,23.7,26.2,"04:41:52",1
"22/08/10","05:00",0.0,25.6,88.6,1004.3,335.8,0.8,1.3,345.9,0.00,23.6,26.4,"04:50:40",1
"22/08/10","05:10",0.0,25.5,88.8,1004.5,303.2,0.7,1.4,334.4,0.00,23.6,26.2,"05:07:36",1
"22/08/10","05:20",0.0,25.3,89.1,1004.3,292.1,0.6,1.0,315.8,0.00,23.4,26.2,"05:17:12",1
"22/08/10","05:30",0.0,25.3,89.3,1004.5,270.7,0.7,0.9,266.6,0.00,23.5,26.3,"05:23:12",1
"22/08/10","05:40",0.0,25.3,89.5,1004.8,314.8,0.8,1.2,338.6,0.00,23.5,26.3,"05:33:44",1
"22/08/10","05:50",0.0,25.4,89.7,1004.5,341.3,0.8,1.2,344.0,0.00,23.6,26.0,"05:41:04",1
"22/08/10","06:00",0.0,25.3,89.8,1004.8,317.1,0.6,1.1,326.4,0.00,23.5,26.2,"05:50:24",1
"22/08/10","06:10",0.0,25.3,90.0,1004.5,293.7,1.0,1.7,340.4,0.00,23.6,26.1,"06:06:40",1
"22/08/10","06:20",0.0,25.4,90.2,1004.8,331.4,1.0,1.6,319.4,0.00,23.7,26.1,"06:10:08",1
"22/08/10","06:30",0.0,25.5,90.3,1004.3,313.2,1.0,1.7,335.6,0.00,23.8,26.1,"06:29:52",1
"22/08/10","06:40",0.0,25.7,90.4,1004.5,305.2,1.0,1.8,321.1,0.01,24.0,26.1,"06:30:24",1
"22/08/10","06:50",0.0,26.2,90.5,1005.2,294.4,0.5,0.9,315.4,0.03,24.6,26.0,"06:40:24",1
"22/08/10","07:00",0.0,26.8,90.4,1004.8,290.5,0.2,0.8,321.7,0.04,25.1,26.0,"06:56:56",1
"22/08/10","07:10",0.0,27.6,90.0,1004.8,298.9,0.1,0.6,244.8,0.06,25.8,25.8,"07:00:02",1
"22/08/10","07:20",0.0,28.0,89.4,1004.8,230.5,0.2,0.9,203.1,0.09,26.1,26.1,"07:11:52",1
"22/08/10","07:30",0.0,27.9,87.9,1004.5,216.8,0.3,1.3,229.3,0.11,25.7,26.1,"07:23:28",1
"22/08/10","07:40",0.0,28.6,86.4,1004.5,163.7,0.7,1.8,137.8,0.13,26.1,26.1,"07:37:52",1
"22/08/10","07:50",0.0,29.4,83.2,1004.3,180.5,0.6,1.6,232.8,0.15,26.3,26.1,"07:46:56",1
"22/08/10","08:00",0.0,30.2,79.1,1005.2,162.9,0.6,1.8,227.5,0.19,26.2,26.1,"07:51:44",1
"22/08/10","08:10",0.0,30.5,75.1,1005.2,177.8,1.3,2.8,189.4,0.24,25.6,26.1,"08:06:48",1
"22/08/10","08:20",0.0,31.2,73.3,1005.5,165.7,1.1,3.1,211.4,0.28,25.9,26.1,"08:13:04",1
"22/08/10","08:30",0.0,31.0,72.3,1006.0,168.1,1.7,3.6,207.0,0.27,25.5,26.3,"08:24:00",1
"22/08/10","08:40",0.0,31.0,71.5,1006.0,201.2,1.2,3.2,193.5,0.25,25.3,26.0,"08:36:16",1
"22/08/10","08:50",0.0,31.3,71.7,1006.2,174.3,1.1,2.4,113.6,0.31,25.6,26.1,"08:43:36",1
"22/08/10","09:00",0.0,31.6,70.5,1006.4,155.0,1.3,2.6,125.3,0.26,25.6,25.9,"08:59:52",1
"22/08/10","09:10",0.0,31.1,70.7,1006.0,183.0,1.2,2.7,205.5,0.23,25.2,26.1,"09:05:44",1
"22/08/10","09:20",0.0,31.6,70.0,1006.0,169.4,0.7,1.9,121.9,0.25,25.5,26.4,"09:13:20",1
"22/08/10","09:30",0.0,32.1,69.5,1006.4,186.5,1.0,2.5,195.2,0.32,25.9,26.2,"09:25:36",1
"22/08/10","09:40",0.0,32.3,66.9,1006.4,169.6,1.5,2.9,229.9,0.38,25.4,26.2,"09:39:44",1
"22/08/10","09:50",0.0,32.2,67.4,1006.7,150.4,1.2,4.2,128.0,0.29,25.4,26.2,"09:48:24",1
"22/08/10","10:00",0.0,31.9,66.3,1006.4,160.4,1.5,3.1,208.5,0.24,24.9,26.4,"09:51:28",1
"22/08/10","10:10",0.0,32.2,67.5,1006.2,192.3,1.5,3.6,193.8,0.28,25.5,26.3,"10:02:48",1
"22/08/10","10:20",0.0,32.3,63.7,1006.2,288.1,0.7,2.5,209.3,0.25,24.6,26.3,"10:16:32",1
"22/08/10","10:30",0.0,32.2,63.4,1006.2,234.2,1.3,2.8,238.6,0.15,24.4,26.4,"10:24:24",1
"22/08/10","10:40",0.0,32.2,62.7,1006.0,244.9,1.3,3.3,239.6,0.19,24.2,26.4,"10:35:12",1
"22/08/10","10:50",0.0,32.2,62.8,1005.5,238.0,1.6,4.4,227.1,0.20,24.2,26.5,"10:45:12",1
"22/08/10","11:00",0.0,32.9,60.6,1005.7,230.1,2.2,6.0,219.5,0.41,24.3,26.6,"10:55:12",1
"22/08/10","11:10",0.0,34.0,59.1,1006.2,237.5,1.7,3.6,212.7,0.61,24.9,26.4,"11:04:08",1
"22/08/10","11:20",0.0,34.2,55.3,1006.2,211.8,2.3,6.6,237.3,0.52,24.0,26.7,"11:14:00",1
"22/08/10","11:30",0.0,34.6,54.0,1006.4,189.0,2.8,5.4,180.4,0.63,24.0,26.6,"11:27:04",1
"22/08/10","11:40",0.0,34.8,54.3,1006.7,190.4,2.8,5.2,194.6,0.59,24.2,26.4,"11:33:04",1
"22/08/10","11:50",0.0,34.6,53.4,1006.4,200.0,2.0,5.4,179.2,0.48,23.8,26.7,"11:44:00",1
"22/08/10","12:00",0.0,35.3,52.7,1006.4,217.5,1.1,2.8,197.9,0.53,24.2,26.7,"11:50:40",1
"22/08/10","12:10",0.0,35.2,52.1,1006.7,214.4,2.1,5.2,224.2,0.61,23.9,26.6,"12:03:04",1
"22/08/10","12:20",0.0,35.7,51.3,1006.4,197.2,2.1,5.1,232.5,0.61,24.1,26.8,"12:17:52",1
"22/08/10","12:30",0.0,35.5,52.0,1006.7,201.9,2.7,5.4,210.4,0.62,24.2,26.6,"12:24:08",1
"22/08/10","12:40",0.0,35.6,51.7,1006.2,213.2,2.2,4.5,206.7,0.61,24.2,26.7,"12:36:56",1
"22/08/10","12:50",0.0,35.9,51.5,1006.2,200.6,1.5,3.6,226.8,0.51,24.4,27.0,"12:48:32",1
"22/08/10","13:00",0.0,35.4,49.8,1006.4,277.4,1.6,4.0,349.4,0.48,23.4,26.9,"12:59:28",1
"22/08/10","13:10",0.0,35.2,52.0,1006.4,244.6,1.6,4.7,222.6,0.39,23.9,27.0,"13:02:00",1
"22/08/10","13:20",0.0,35.3,51.8,1006.0,266.7,1.6,4.9,213.3,0.46,23.9,27.2,"13:10:02",1
"22/08/10","13:30",0.0,35.1,52.5,1006.0,214.2,2.8,5.6,223.1,0.47,24.0,27.2,"13:28:16",1
"22/08/10","13:40",0.0,35.1,51.0,1005.7,295.6,1.7,4.4,227.3,0.40,23.5,27.3,"13:39:28",1
"22/08/10","13:50",0.0,35.4,51.5,1005.2,248.8,1.8,5.4,202.8,0.46,23.9,27.2,"13:47:12",1
"22/08/10","14:00",0.0,36.1,51.1,1005.5,199.4,1.2,5.0,213.1,0.46,24.4,27.3,"13:54:24",1
"22/08/10","14:10",0.0,35.7,50.7,1005.7,196.3,2.0,4.3,217.8,0.42,23.9,27.2,"14:05:44",1
"22/08/10","14:20",0.0,35.7,51.0,1005.5,187.5,2.2,3.7,181.4,0.42,24.0,27.4,"14:12:48",1
"22/08/10","14:30",0.0,35.6,50.7,1005.2,195.5,2.1,3.5,210.4,0.39,23.8,27.2,"14:24:16",1
"22/08/10","14:40",0.0,35.6,51.2,1005.2,206.4,2.2,4.3,215.0,0.39,24.0,27.2,"14:32:56",1
"22/08/10","14:50",0.0,35.4,50.4,1005.2,246.6,1.7,4.5,230.9,0.32,23.6,27.4,"14:49:52",1
"22/08/10","15:00",0.0,34.9,51.6,1005.0,238.1,1.6,4.2,236.6,0.24,23.5,27.2,"14:55:04",1
"22/08/10","15:10",0.0,34.9,51.7,1004.8,227.8,2.0,4.5,235.7,0.28,23.5,27.5,"15:00:08",1
"22/08/10","15:20",0.0,35.4,52.1,1005.0,227.0,1.3,3.6,217.3,0.29,24.1,27.2,"15:10:48",1
"22/08/10","15:30",0.0,35.3,53.4,1005.2,210.6,1.7,4.3,208.7,0.30,24.4,27.3,"15:26:16",1
"22/08/10","15:40",0.0,35.7,51.0,1005.2,215.1,2.0,4.4,212.5,0.38,24.0,27.4,"15:36:40",1
"22/08/10","15:50",0.0,36.3,49.5,1005.2,195.4,1.3,3.4,222.5,0.41,24.1,27.5,"15:40:08",1
"22/08/10","16:00",0.0,36.4,48.3,1005.2,207.6,1.2,2.6,180.7,0.36,23.8,27.6,"15:58:08",1
"22/08/10","16:10",0.0,36.5,48.2,1005.5,200.0,1.1,3.3,226.1,0.32,23.8,27.5,"16:01:36",1
"22/08/10","16:20",0.0,35.3,50.9,1005.7,165.8,1.2,2.7,202.0,0.08,23.6,27.6,"16:18:00",1
"22/08/10","16:30",0.0,35.3,53.5,1005.0,166.2,1.1,3.1,235.1,0.18,24.5,27.3,"16:25:52",1
"22/08/10","16:40",0.0,35.9,51.4,1004.8,184.6,1.7,3.1,194.6,0.27,24.3,27.6,"16:31:04",1
"22/08/10","16:50",0.0,35.2,51.7,1004.8,185.9,1.7,3.4,180.0,0.16,23.8,27.5,"16:46:40",1
"22/08/10","17:00",0.0,35.2,52.3,1005.0,199.7,1.8,6.6,186.1,0.15,24.0,27.6,"16:55:44",1
"22/08/10","17:10",0.0,34.9,53.3,1005.0,239.3,1.1,3.5,236.9,0.09,24.0,27.7,"17:03:28",1
"22/08/10","17:20",0.0,34.5,55.0,1004.8,312.7,1.3,2.9,345.3,0.07,24.2,27.7,"17:16:32",1
"22/08/10","17:30",0.0,34.1,56.3,1004.3,326.5,1.5,3.1,354.4,0.06,24.2,27.8,"17:22:16",1
"22/08/10","17:40",0.0,33.8,56.7,1004.3,280.5,1.0,2.9,230.7,0.04,24.0,27.6,"17:39:52",1
"22/08/10","17:50",0.0,33.7,57.2,1003.8,234.7,1.1,2.6,236.1,0.04,24.1,27.4,"17:48:08",1
"22/08/10","18:00",0.0,33.4,58.2,1004.3,236.8,0.8,1.7,214.5,0.03,24.1,27.5,"17:53:44",1
"22/08/10","18:10",0.0,33.3,58.6,1003.8,219.7,1.3,2.8,219.9,0.03,24.1,27.7,"18:03:36",1
"22/08/10","18:20",0.0,33.2,59.4,1003.6,221.6,1.2,2.8,232.8,0.02,24.3,27.4,"18:15:12",1
"22/08/10","18:30",0.0,32.9,60.2,1003.8,237.1,1.1,2.4,200.3,0.01,24.2,27.6,"18:22:56",1
"22/08/10","18:40",0.0,32.7,63.2,1003.6,295.4,0.5,2.6,233.8,0.01,24.8,27.5,"18:31:28",1
"22/08/10","18:50",0.0,32.1,65.4,1003.4,356.1,0.7,1.6,8.3,0.00,24.8,27.4,"18:41:44",1
"22/08/10","19:00",0.0,31.6,66.9,1003.4,58.9,0.3,1.0,308.7,0.00,24.7,27.6,"18:50:32",1
"22/08/10","19:10",0.0,31.2,68.9,1002.9,357.0,0.7,1.3,355.8,0.00,24.8,27.6,"19:05:04",1
"22/08/10","19:20",0.0,30.6,71.7,1002.6,1.9,0.5,1.1,3.6,0.00,24.9,27.4,"19:16:56",1
"22/08/10","19:30",0.0,30.2,73.2,1002.9,326.5,0.7,1.9,326.7,0.00,24.9,27.4,"19:26:16",1
"22/08/10","19:40",0.0,30.0,74.1,1003.1,344.3,0.6,1.3,349.1,0.00,24.9,27.4,"19:30:02",1
"22/08/10","19:50",0.0,29.8,74.9,1003.4,3.0,0.6,1.6,334.0,0.00,24.9,27.4,"19:40:24",1
"22/08/10","20:00",0.0,29.5,75.6,1003.1,343.6,0.6,1.2,7.8,0.00,24.8,27.3,"19:53:52",1
"22/08/10","20:10",0.0,29.3,76.2,1002.9,301.3,0.3,1.2,339.4,0.00,24.7,27.3,"20:09:44",1
"22/08/10","20:20",0.0,29.2,77.1,1003.6,322.0,1.0,1.6,321.6,0.00,24.8,27.5,"20:15:28",1
"22/08/10","20:30",0.0,29.1,77.9,1003.4,348.9,0.8,2.0,343.8,0.00,24.9,27.2,"20:20:24",1
"22/08/10","20:40",0.0,28.8,78.5,1003.8,354.9,0.8,1.3,359.2,0.00,24.7,27.2,"20:35:04",1
"22/08/10","20:50",0.0,28.7,79.2,1004.1,334.8,1.1,1.9,342.2,0.00,24.8,27.1,"20:40:24",1
"22/08/10","21:00",0.0,28.4,79.7,1004.3,331.2,0.7,1.3,342.3,0.00,24.6,27.1,"20:55:36",1
"22/08/10","21:10",0.0,28.3,80.1,1004.3,351.2,1.0,1.8,347.5,0.00,24.6,27.3,"21:04:48",1
"22/08/10","21:20",0.0,28.0,80.6,1004.5,336.7,1.0,1.4,346.1,0.00,24.4,27.2,"21:11:04",1
"22/08/10","21:30",0.0,27.7,81.1,1004.5,323.9,0.3,1.2,345.9,0.00,24.2,27.1,"21:26:16",1
"22/08/10","21:40",0.0,27.6,81.9,1004.8,342.3,0.6,1.4,341.1,0.00,24.3,27.1,"21:32:32",1
"22/08/10","21:50",0.0,27.6,82.3,1004.5,328.9,1.2,1.8,322.9,0.00,24.3,27.3,"21:42:48",1
"22/08/10","22:00",0.0,27.5,82.6,1004.8,332.2,0.8,1.7,354.1,0.00,24.3,27.1,"21:50:16",1
"22/08/10","22:10",0.0,27.3,83.1,1004.5,332.7,0.7,1.3,345.4,0.00,24.2,27.1,"22:08:24",1
"22/08/10","22:20",0.0,27.0,83.6,1004.5,313.0,0.8,1.3,342.1,0.00,24.0,27.0,"22:10:40",1
"22/08/10","22:30",0.0,26.8,84.1,1004.8,326.3,0.8,1.4,333.4,0.00,23.9,26.7,"22:20:56",1
"22/08/10","22:40",0.0,26.6,84.5,1004.8,289.6,0.6,1.1,355.3,0.00,23.8,26.8,"22:31:20",1
"22/08/10","22:50",0.0,26.6,84.9,1004.8,296.9,0.8,1.4,326.2,0.00,23.9,26.9,"22:46:16",1
"22/08/10","23:00",0.0,26.6,85.1,1004.8,322.0,1.2,1.9,339.4,0.00,23.9,26.8,"22:57:36",1
"22/08/10","23:10",0.0,26.7,85.3,1005.2,335.7,1.1,1.9,336.7,0.00,24.1,27.0,"23:01:44",1
"22/08/10","23:20",0.0,26.6,85.5,1004.8,320.0,0.7,1.3,349.0,0.00,24.0,26.8,"23:12:24",1
"22/08/10","23:30",0.0,26.4,85.8,1005.0,304.9,0.8,1.4,336.5,0.00,23.9,26.9,"23:21:20",1
"22/08/10","23:40",0.0,26.3,86.1,1005.0,321.6,1.0,1.3,327.2,0.00,23.8,26.8,"23:31:04",1
"22/08/10","23:50",0.0,26.2,86.4,1004.8,292.8,0.7,1.1,311.7,0.00,23.8,26.7,"23:40:08",1
"22/08/10","24:00",0.0,26.2,86.7,1005.2,291.5,0.7,1.3,308.3,0.00,23.8,26.9,"23:50:16",1
